sim
Sign-in with your pilot id or email,
or register
Callsign
Passwort

Schedule Details

Flight Number: RYR5912 (1)
Departure: Seville San Pablo Airport (LEZL) at 06:00
Arrival: Fuerteventura Airport (GCFV) at 08:15
Route: Ryanair Passenger Schedule. Enter filed route here before submitting Pirep.

Weather Information
Getting current METAR information for LEZL 192130Z 06004KT 030V100 9999 FEW013 15/14 Q1016 NOSIG
Getting current METAR information for GCFV 192130Z 35016KT 9999 FEW040 SCT048 18/12 Q1018

Schedule Frequency

Route Map